Regional Weather Roundup
Issued by NWS Upton, NY

Current Version | Previous Version | Graphics & Text | Print | Product List | Glossary Off
Versions: 1 2 3 4 5 6 7 8 9 10 11 12 13 14 15 16 17 18 19 20 21 22 23 24 25 26 27 28 29 30 31 32 33 34 35 36 37 38 39 40 41 42 43 44 45 46 47 48 49 50

000
ASUS41 KOKX 070808
RWROKX

REGIONAL WEATHER ROUNDUP
NATIONAL WEATHER SERVICE NEW YORK NY
400 AM EDT TUE JUL 07 2015

NOTE: "FAIR" INDICATES FEW OR NO CLOUDS BELOW 12,000 FEET WITH NO
SIGNIFICANT WEATHER AND/OR OBSTRUCTIONS TO VISIBILITY.

NYZ071-072-176-178-NJZ106-104-070900-
NEW YORK CITY METRO AREA


CITY           SKY/WX    TMP DP  RH WIND       PRES   REMARKS
CENTRAL PARK   CLOUDY    75  70  84 CALM      30.08S
LAGUARDIA APRT CLOUDY    75  71  87 S7        30.04F
KENNEDY INTL   FOG       75  72  90 SE7       30.06S VSB 1
NEWARK/LIBERTY MOCLDY    74  72  93 E7        30.04S
BRNX BOT. GARD   N/A     73  70  88 SW1       30.05F
TETERBORO      CLOUDY    76  70  82 SE6       30.04R
$$

NYZ177-179-078>081-070900-
LONG ISLAND NEW YORK

CITY           SKY/WX    TMP DP  RH WIND       PRES   REMARKS
FARMINGDALE    FOG       73  72  96 SW9       30.06S VSB 3/4
ISLIP          CLOUDY    73  71  93 S8        30.05S FOG
SHIRLEY        CLOUDY    73  71  93 S7        30.08R FOG
WESTHAMPTON    CLOUDY    72  71  97 S5        30.09S
MONTAUK POINT    N/A     73  70  90 VRB3      30.10F
$$

NYZ052-065-067-070900-
HUDSON VALLEY

CITY           SKY/WX    TMP DP  RH WIND       PRES   REMARKS
WHITE PLAINS     N/A     72  68  87 CALM      30.06S
NEWBURGH       PTCLDY    70  64  83 MISG      30.07F
MONTGOMERY     CLOUDY    71  68  90 N3        30.05F
POUGHKEEPSIE   MOCLDY    69  65  86 CALM      30.05S
ALBANY         PTCLDY    72  65  78 S7        30.04F
$$

NJZ001-105-106-008-010-013-015-019>022-104-070900-
NEW JERSEY

CITY           SKY/WX    TMP DP  RH WIND       PRES   REMARKS
NEWARK/LIBERTY MOCLDY    74  72  93 E7        30.04S
TETERBORO      CLOUDY    76  70  82 SE6       30.04R
CALDWELL       CLOUDY    73  69  87 CALM      30.05S
MORRISTOWN     CLOUDY    72  68  88 CALM      30.04F
SOMERVILLE     CLOUDY    71  69  93 CALM      30.02F FOG
SUSSEX         CLOUDY    71  67  87 CALM      30.04F
ANDOVER          N/A     70  69  97 CALM      30.05F
TRENTON        CLOUDY    75  72  90 S7        30.03F
MILLVILLE      PTCLDY    76  73  91 S5        30.03S
ATLANTIC CITY  NOT AVBL
WRIGHTSTOWN    MOCLDY    74  73  99 S6        30.02S
TOMS RIVER     MOCLDY    73  72  94 CALM      30.05S
BELMAR         MOCLDY    75  70  83 SW3       30.04F
$$

PAZ047>061-062-071-070900-
EASTERN PENNSYLVANIA

CITY           SKY/WX    TMP DP  RH WIND       PRES   REMARKS
PHILADELPHIA   CLOUDY    77  72  84 S7        30.02F
ALLENTOWN      CLOUDY    75  71  87 SE5       30.03S
SCRANTON       CLOUDY    74  69  85 CALM      30.03F
$$

CTZ002-004>006-009-010-012-RIZ004-006-007-MAZ004-011-015-070900-
SOUTHERN NEW ENGLAND
 IN CT

CITY           SKY/WX    TMP DP  RH WIND       PRES   REMARKS
BRADLEY INTL   MOCLDY    70  64  81 SE6       30.07F
HARTFORD       CLOUDY    71  65  81 CALM      30.07F
DANBURY        CLOUDY    70  64  81 CALM      30.08F
WTRBRY/OXFORD  CLOUDY    70  63  78 SE3       30.10S
BRIDGEPORT     CLOUDY    72  68  87 E6        30.06F
MERIDEN        CLOUDY    70  66  87 CALM      30.08S
NEW HAVEN      CLOUDY    72  67  84 E5        30.07F
CHESTER        CLOUDY    68  64  88 CALM      30.10S
GROTON         CLOUDY    70  67  90 E3        30.08S
WILLIMANTIC    CLOUDY    68  64  87 CALM      30.10S

 IN RI

CITY           SKY/WX    TMP DP  RH WIND       PRES   REMARKS
PROVIDENCE     CLOUDY    69  66  90 S3        30.11S
BLOCK ISLAND   CLOUDY    70  66  88 CALM      30.10S
WESTERLY       CLOUDY    67  65  93 CALM      30.10S

 IN MA

CITY           SKY/WX    TMP DP  RH WIND       PRES   REMARKS
BOSTON         CLEAR     66  63  90 S5        30.11S
WORCESTER      CLOUDY    66  61  84 SW6       30.12S
WESTFIELD      CLOUDY    69  63  81 CALM      30.08S
PROVINCETOWN   CLEAR     64   9  11 S7        30.13S
NANTUCKET      CLEAR     63  61  93 SE7       30.13S
$$

ANZ330-335-338-340-345-350-353-355-070900-
COASTAL MARINE OBSERVATIONS


STATION/POSITION TIME  SKY/WX   TEMP    WIND        PRES    VSBY  WAVE
                                AIR SEA DIR/SP/G                  HT/PER
                 (UTC)          (F)     (DEG/KT/KT) (MB)    (MI)  (FT/S)
NY HARB ENTRANCE 0750            73 72  170/  8/ 10 1017.1          2/ 5
4S FIRE IS       0703               69                N/A           2/ 4
20S FIRE ISLAND  0750            72 71  180/ 10/ 12 1017.7          2/ 8
GREAT SOUTH BAY  0700            73 76  210/ 10/ 12   N/A
23SW MTP         0750            71 70  210/  8/ 10 1018.2          2/ 8
HUDSON CANYON    NOT AVBL
KINGS POINT      0700            74 68  190/  4/  5 1017.0
CENTRAL LI SOUND NOT AVBL
EASTERN LI SOUND 0700            66 64   70/  8/  8   N/A
ROBBINS REEF     0700            73     140/  9/ 10 1016.4
$$


>>>>>>>>>>>>>>>>>>>>>>>>>>>> KEY <<<<<<<<<<<<<<<<<<<<<<<<<<<
>                                                          <
>     SKY/WX - SKY CONDITION/PRESENT WEATHER               <
>     TMP    - TEMPERATURE IN FAHRENHEIT                   <
>     DP     - DEWPOINT IN FAHRENHEIT                      <
>     RH     - RELATIVE HUMIDITY IN PERCENT                <
>     WIND   - DIRECTION AND SPEED IN MPH                  <
>     PRES   - MEAN SEA LEVEL PRESSURE IN INCHES OF HG     <
>     WCI    - WIND CHILL INDEX                            <
>     VSB    - VISIBILITY IN MILES                         <
>     HX     - HEAT INDEX                                  <
>     TC     - TEMPERATURE IN CELSIUS                      <
>     VRB    - VARIABLE WIND DIRECTION                     <
>                                                          <
>>>>>>>>>>>>>>>>>>>>>>>>>>>> KEY <<<<<<<<<<<<<<<<<<<<<<<<<<<




USA.gov is the U.S. government's official web portal to all federal, state and local government web resources and services.